Flag for Germany Weather past 2 weeks in Lünen, North Rhine-Westphalia, Germany

Now
53 °F

Passing clouds.


Feels Like: 53 °F
Forecast: 52 / 65 °F
Wind: 3 mph from Southwest

Location: Muenster / Osnabrueck

Current Time: Sep 2, 2015 at 5:02:13 AM

Latest Report: Sep 2, 2015 at 4:00 AM


Visibility: 19 mi

Pressure: 30.03 "Hg

Humidity: 88%

Dew point: 50 °F

Location of LünenLocation

Historic Weather in Lünen — Graph

°F

Lünen temperature yesterday

Maximum temperature yesterday: 69 °F (at 1:00 AM)
Minimum temperature yesterday: 56 °F (at 10:00 PM)
Average temperature yesterday: 63 °F

Past Weeks' High & Low Weather Summary

 TemperatureHumidityPressure
High88 °F (Aug 31, 5:00 PM)100% (Aug 29, 6:00 AM)30.27 "Hg (Aug 29, 6:00 AM)
Low50 °F (Aug 29, 4:00 AM)34% (Aug 22, 5:00 PM)29.54 "Hg (Aug 24, 6:00 PM)
Average65 °F73%29.98 "Hg
* Reported Aug 18 4:00 AM — Sep 2 4:00 AM, Lünen, Weather by CustomWeather, © 2015

Note: Actual official high and low records may vary slightly from our data, if they occured in-between our weather recording intervals... More about our weather records

Advertising

Lünen weather history for previous 24 hours

 ConditionsComfort  
Time TempWeatherWind HumidityBarometerVisibility
4:00 AM
Wed, Sep 2
53 °FPassing clouds.3 mph88%30.03 "Hg19 mi
3:00 AM52 °FClear.3 mph90%30.03 "Hg19 mi
2:00 AM54 °FClear.3 mph88%30.02 "Hg22 mi
1:00 AM54 °FPassing clouds.5 mph89%30.01 "Hg22 mi
11:00 PM
Tue, Sep 1
56 °FPassing clouds.3 mph82%30.01 "Hg25 mi
10:00 PM56 °FPassing clouds.2 mph86%30.00 "Hg25 mi
9:00 PM58 °FPassing clouds.2 mph83%29.98 "Hg22 mi
8:00 PM61 °FScattered clouds.5 mph77%29.96 "Hg25 mi
7:00 PM63 °FOvercast.3 mph76%29.94 "Hg22 mi
6:00 PM63 °FOvercast.5 mph76%29.93 "Hg19 mi
5:00 PM62 °FOvercast.3 mph85%29.92 "Hg12 mi
4:00 PM61 °FOvercast.5 mph90%29.91 "Hg12 mi
3:00 PM61 °FLight rain. Overcast.5 mph89%29.89 "Hg7 mi
2:00 PM61 °FLight rain. Overcast.5 mph92%29.88 "Hg8 mi
1:00 PM61 °FLight rain. Overcast.3 mph93%29.86 "Hg6 mi
12:00 PM61 °FRain. Overcast.3 mph93%29.85 "Hg6 mi
11:00 AM62 °FLight rain. Low clouds.3 mph90%29.83 "Hg9 mi
10:00 AM63 °FOvercast.3 mph84%29.83 "Hg12 mi
9:00 AM62 °FLow clouds.3 mph87%29.82 "Hg16 mi
8:00 AM63 °FOvercast.6 mph87%29.81 "Hg12 mi
7:00 AM65 °FOvercast.5 mph85%29.80 "Hg9 mi
5:00 AM66 °FOvercast.7 mph81%29.79 "Hg16 mi
Weather by CustomWeather, © 2015

See weather overviewHow to use our weather pages